TimeCDT,TemperatureF,Dew PointF,Humidity,Sea Level PressureIn,VisibilityMPH,Wind Direction,Wind SpeedMPH,Gust SpeedMPH,PrecipitationIn,Events,Conditions,WindDirDegrees,DateUTC
12:54 AM,63.0,62.1,97,29.99,6.0,SSE,3.5,-,N/A,,Partly Cloudy,150,2013-05-18 05:54:00
1:54 AM,63.0,61.0,93,29.99,5.0,SE,5.8,-,N/A,,Clear,130,2013-05-18 06:54:00
2:54 AM,63.0,62.1,97,29.99,5.0,SSE,4.6,-,N/A,,Partly Cloudy,160,2013-05-18 07:54:00
3:45 AM,59.0,59.0,100,30.01,2.0,Calm,Calm,-,N/A,,Clear,0,2013-05-18 08:45:00
3:54 AM,59.0,57.9,96,29.99,2.5,Calm,Calm,-,N/A,,Clear,0,2013-05-18 08:54:00
4:17 AM,59.0,59.0,100,30.01,1.0,Calm,Calm,-,N/A,,Clear,0,2013-05-18 09:17:00
4:46 AM,57.2,57.2,100,30.01,0.5,Calm,Calm,-,N/A,Fog,Fog,0,2013-05-18 09:46:00
4:54 AM,57.9,57.0,97,30.00,1.0,Calm,Calm,-,N/A,,Scattered Clouds,0,2013-05-18 09:54:00
5:54 AM,61.0,60.1,97,30.01,1.5,Calm,Calm,-,N/A,,Overcast,0,2013-05-18 10:54:00
6:54 AM,63.0,63.0,100,30.02,2.5,ESE,3.5,-,N/A,,Clear,120,2013-05-18 11:54:00
7:10 AM,64.4,62.6,94,30.03,3.0,ESE,5.8,-,N/A,,Clear,120,2013-05-18 12:10:00
7:54 AM,66.0,63.0,90,30.02,6.0,SE,5.8,-,N/A,,Mostly Cloudy,140,2013-05-18 12:54:00
8:54 AM,70.0,64.9,84,30.03,8.0,SSE,4.6,-,N/A,,Mostly Cloudy,150,2013-05-18 13:54:00
9:27 AM,71.6,64.4,78,30.04,9.0,Variable,5.8,-,N/A,,Mostly Cloudy,0,2013-05-18 14:27:00
9:54 AM,73.0,64.9,76,30.03,8.0,ESE,5.8,-,N/A,,Mostly Cloudy,110,2013-05-18 14:54:00
10:54 AM,75.0,63.0,66,30.02,10.0,SSE,6.9,-,N/A,,Overcast,150,2013-05-18 15:54:00
11:54 AM,75.0,64.9,71,30.01,10.0,SE,8.1,-,N/A,,Overcast,130,2013-05-18 16:54:00
12:54 PM,75.9,63.0,64,29.99,10.0,ESE,4.6,-,N/A,,Overcast,120,2013-05-18 17:54:00
2:54 PM,78.1,64.0,62,29.96,10.0,SE,6.9,-,N/A,,Overcast,140,2013-05-18 19:54:00
3:54 PM,80.1,64.0,58,29.94,10.0,ESE,13.8,18.4,N/A,,Mostly Cloudy,120,2013-05-18 20:54:00
5:54 PM,78.1,64.0,62,29.94,10.0,South,6.9,-,N/A,,Mostly Cloudy,170,2013-05-18 22:54:00
6:54 PM,77.0,63.0,62,29.94,10.0,South,6.9,-,N/A,,Overcast,170,2013-05-18 23:54:00
7:54 PM,75.9,64.0,67,29.94,10.0,South,6.9,-,N/A,,Overcast,190,2013-05-19 00:54:00
8:54 PM,71.1,63.0,75,29.94,10.0,SSE,4.6,-,N/A,,Clear,160,2013-05-19 01:54:00
9:54 PM,70.0,64.0,81,29.94,10.0,South,5.8,-,N/A,,Clear,170,2013-05-19 02:54:00
11:54 PM,64.9,62.1,90,29.92,8.0,SSE,4.6,-,N/A,,Clear,160,2013-05-19 04:54:00